Regional Weather Roundup
Issued by NWS

Home | Current Version | Previous Version | Graphics & Text | Print | Product List | Glossary On
Versions: 1 2 3 4 5 6 7 8 9 10 11 12 13 14 15 16 17 18 19 20 21 22 23 24 25 26 27 28 29 30 31 32 33 34 35 36 37 38 39 40 41 42 43 44 45 46 47 48 49 50
000
ASUS43 KFSD 181610
RWRSD

WEATHER ROUNDUP FOR SOUTH DAKOTA
NATIONAL WEATHER SERVICE SIOUX FALLS SD
1100 AM CDT THU SEP 18 2014

NOTE: "FAIR" INDICATES FEW OR NO CLOUDS BELOW 12,000 FEET WITH NO
SIGNIFICANT WEATHER AND/OR OBSTRUCTIONS TO VISIBILITY.


SDZ001>005-009-010-012>017-181700-
NORTHWEST AND NORTH CENTRAL SOUTH DAKOTA

CITY           SKY/WX    TMP DP  RH WIND       PRES   REMARKS
BUFFALO          N/A     65  53  65 S9        29.77S
FAITH            N/A     65  57  75 SE15      29.84F
MOBRIDGE       SUNNY     72  59  63 SE13      29.84F
$$

SDZ012>016-024>037-041>051-057-063-072>074-181700-
SOUTHWEST AND SOUTH CENTRAL SOUTH DAKOTA

CITY           SKY/WX    TMP DP  RH WIND       PRES   REMARKS
RAPID CTY ARPT SUNNY     67  55  65 SE3       29.86S
PIERRE         SUNNY     71  61  70 S20       29.87S
CUSTER         SUNNY     77  42  28 W6        30.00S
PHILIP         PTSUNNY   70  63  78 S9        29.85F
PINE RIDGE     SUNNY     71  60  68 SW14      29.90S
WINNER         FAIR      70  60  70 S17G24    29.93S
$$

SDZ004>011-016>023-039-040-181700-
NORTHEAST SOUTH DAKOTA

CITY           SKY/WX    TMP DP  RH WIND       PRES   REMARKS
ABERDEEN       SUNNY     67  58  72 S10       29.94F
WATERTOWN      SUNNY     68  59  73 S21       29.99S
SISSETON         N/A     53  53 100 S10       29.99F
$$

SDZ017-020-022-023-036>040-048>070-181700-
SOUTHEAST SOUTH DAKOTA

CITY           SKY/WX    TMP DP  RH WIND       PRES   REMARKS
SIOUX FALLS    PTSUNNY   71  58  63 SE13G22   30.02S
HURON          LGT RAIN  64  59  83 SE8       29.95F
CHAMBERLAIN    MOSUNNY   67  62  83 S15       29.92S
MITCHELL       MOSUNNY   70  63  78 S13       29.98S
YANKTON        SUNNY     70  63  78 S12       30.01R
$$

ABBREVIATIONS USED IN REMARKS
   TC - TEMPERATURE IN CELSIUS
  WCI - WIND CHILL INDEX
   HX - HEAT INDEX
  VSB - VISIBILITY



USA.gov is the U.S. government's official web portal to all federal, state and local government web resources and services.